Regional Weather Roundup
Issued by NWS Portland, ME

Home | Current Version | Previous Version | Text Only | Print | Product List | Glossary On
Versions: 1 2 3 4 5 6 7 8 9 10 11 12 13 14 15 16 17 18 19 20 21 22 23 24 25 26 27 28 29 30 31 32 33 34 35 36 37 38 39 40 41 42 43 44 45 46 47 48 49 50
000
ASUS41 KGYX 042010
RWRGYX
WEATHER ROUNDUP FOR MAINE AND NEW HAMPSHIRE
NATIONAL WEATHER SERVICE GRAY ME
300 PM EST WED MAR 04 2015

MEZ002-005-006-010-012-015-018-020-021-024-026-027-029-042100-
MAINE

CITY           SKY/WX    TMP DP  RH WIND       PRES   REMARKS
PORTLAND       PTSUNNY   46  26  45 W15G22    29.67F
SANFORD        PTSUNNY   39  25  56 W13G21    29.69R
BAR HARBOR     PTSUNNY   43  28  56 W6        29.64F
WISCASSET      MOSUNNY   43  31  62 S7        29.67F
ROCKLAND       MOSUNNY   41  30  65 W12       29.64F
FRYEBURG       MOSUNNY   46  22  38 W10G21    29.64S
LEWISTONAUBURN PTSUNNY   45  27  49 SW13      29.65R
AUGUSTA        PTSUNNY   45  22  40 VRB7      29.63F
WATERVILLE     MOSUNNY   45  23  42 W8        29.61F
BANGOR         PTSUNNY   42  21  43 NW13G21   29.62F
GREENVILLE       N/A     34  18  52 VRB7      29.54S
MILLINOCKET    SUNNY     37  19  48 W17G30    29.60S
HOULTON        SUNNY     38  16  40 W13G21    29.54R
PRESQUE ISLE   MOSUNNY   34  16  47 W21G33    29.52S
FRENCHVILLE    MIX PCPN  28  13  53 W26G38    29.46R WCI  13
CARIBOU        CLOUDY    33  16  49 W13G25    29.50R
$$

NHZ002-005-008-009-011-012-014-042100-
NEW HAMPSHIRE

CITY           SKY/WX    TMP DP  RH WIND       PRES   REMARKS
PORTSMOUTH     PTSUNNY   44  25  47 W12       29.69R
ROCHESTER      PTSUNNY   44  24  45 W9G17     29.69R
NASHUA         CLOUDY    44  25  47 W10G20    29.74S
MANCHESTER     CLOUDY    44  26  49 W9G17     29.71S
CONCORD        CLOUDY    44  24  45 W10       29.70F
LACONIA        PTSUNNY   41  25  52 SW10G20   29.67R
PLYMOUTH       FAIR      42  28  56 W12G20    29.68R
BERLIN         MOSUNNY   40  21  46 CALM      29.62F
WHITEFIELD     PTSUNNY   40  22  48 W10       29.64F
JAFFREY        CLOUDY    38  24  57 W13G21    29.72R
KEENE          CLOUDY    39  25  56 SW13      29.74F
LEBANON        PTSUNNY   42  24  49 W13       29.70R
MT WASHINGTON  FOG       14  14 100 W56         N/A  VSB 1/16WCI -12
$$

VTZ005-007-008-042100-
VERMONT

CITY           SKY/WX    TMP DP  RH WIND       PRES   REMARKS
ST JOHNSBURY     N/A     39  22  50 MISG      29.64S
MONTPELIER     CLOUDY    36  22  56 W14G21    29.70F
BURLINGTON     PTSUNNY   39  23  52 NW8       29.73R
$$

MAZ007-012-024-CTZ003-RIZ002-NYZ038-NYZ072-042100-
SOUTHERN NEW ENGLAND AND NY

CITY           SKY/WX    TMP DP  RH WIND       PRES   REMARKS
BOSTON         CLOUDY    42  29  59 W18G28    29.77R
WORCESTER      CLOUDY    38  28  67 W17G24    29.73S
NANTUCKET      CLOUDY    36  34  92 SW12      29.82F FOG
PROVIDENCE     CLOUDY    43  32  65 NW8       29.80R
HARTFORD       CLOUDY    43  30  60 W8        29.78F
ALBANY         CLOUDY    38  27  64 N7        29.83S
NEW YORK CITY  CLOUDY    45  38  76 SW9       29.82F
$$

ANZ081-ANZ082-ANZ150-NHZ014-MEZ023>029-042100-
COASTAL MARINE OBSERVATIONS

STATION/POSITION TIME  TEMP    WIND        PRES    WAVE
                       AIR SEA DIR/SP/G            HT/PER
                 (UTC) (F)     (DEG/KT/KT) (MB)    (FT/S)
MOUNT DESERT ROC 1900   37                 1004.3F
WELLS            1900   45     270/  6/ 13 1004.5F
JEFFREYS LEDGE   1921      40                N/A     4/ 6
CASHES LEDGE BUO 1950   41 38              1004.5F   6/ 7
$$

.............KEY..............
   WCI - WIND CHILL
   TC  - TEMPERATURE IN CELSIUS
   VSB - VISIBILITY IN MILES
   HX  - HEAT INDEX
   FAIR- INDICATES FEW OR NO CLOUDS BELOW 12,000 FT, WITH NO
         SIGNIFICANT WEATHER AND/OR OBSTRUCTIONS TO VISIBILITY.




USA.gov is the U.S. government's official web portal to all federal, state and local government web resources and services.